Time,TemperatureF,DewpointF,PressureIn,WindDirection,WindDirectionDegrees,WindSpeedMPH,WindSpeedGustMPH,Humidity,HourlyPrecipIn,Conditions,Clouds,dailyrainin,SoftwareType,DateUTC
2013-12-06 00:01:00,65.8,64.0,30.09,SW,223,4.0,4.0,94,0.00,,---,0.00,VWS V14.01,2013-12-06 05:01:00,
2013-12-06 00:06:00,65.9,64.1,30.09,West,269,2.0,5.0,94,0.00,,---,0.00,VWS V14.01,2013-12-06 05:06:00,
2013-12-06 00:11:00,65.8,64.0,30.09,WSW,256,6.0,6.0,94,0.00,,---,0.00,VWS V14.01,2013-12-06 05:11:00,
2013-12-06 00:16:00,65.8,64.0,30.09,SW,217,5.0,5.0,94,0.00,,---,0.00,VWS V14.01,2013-12-06 05:16:00,
2013-12-06 00:21:00,65.9,64.1,30.09,SE,134,3.0,6.0,94,0.00,,---,0.00,VWS V14.01,2013-12-06 05:21:00,
2013-12-06 00:26:00,65.9,64.1,30.09,West,269,4.0,6.0,94,0.00,,---,0.00,VWS V14.01,2013-12-06 05:26:00,
2013-12-06 00:31:00,65.9,64.1,30.09,WSW,244,6.0,6.0,94,0.00,,---,0.00,VWS V14.01,2013-12-06 05:31:00,
2013-12-06 00:36:00,65.9,64.1,30.08,SSW,205,2.0,2.0,94,0.00,,---,0.00,VWS V14.01,2013-12-06 05:36:00,
2013-12-06 00:41:00,65.9,64.1,30.08,SW,226,5.0,5.0,94,0.00,,---,0.00,VWS V14.01,2013-12-06 05:41:00,
2013-12-06 00:46:00,65.8,64.0,30.08,SW,236,3.0,3.0,94,0.00,,---,0.00,VWS V14.01,2013-12-06 05:46:00,
2013-12-06 00:51:00,65.8,64.0,30.07,South,191,6.0,6.0,94,0.00,,---,0.00,VWS V14.01,2013-12-06 05:51:00,
2013-12-06 00:56:00,65.8,64.0,30.08,SW,231,1.0,2.0,94,0.00,,---,0.00,VWS V14.01,2013-12-06 05:56:00,
2013-12-06 01:01:00,65.7,63.9,30.07,SW,223,3.0,3.0,94,0.00,,---,0.00,VWS V14.01,2013-12-06 06:01:00,
2013-12-06 01:06:00,65.7,63.9,30.08,SW,215,3.0,3.0,94,0.00,,---,0.00,VWS V14.01,2013-12-06 06:06:00,
2013-12-06 01:11:00,65.6,63.8,30.07,SW,223,5.0,6.0,94,0.00,,---,0.00,VWS V14.01,2013-12-06 06:11:00,
2013-12-06 01:16:00,65.6,63.8,30.07,SSW,206,3.0,9.0,94,0.00,,---,0.00,VWS V14.01,2013-12-06 06:16:00,
2013-12-06 01:21:00,65.5,63.7,30.07,SSW,207,2.0,3.0,94,0.00,,---,0.00,VWS V14.01,2013-12-06 06:21:00,
2013-12-06 01:26:00,65.4,63.6,30.07,West,259,5.0,6.0,94,0.00,,---,0.00,VWS V14.01,2013-12-06 06:26:00,
2013-12-06 01:31:00,65.4,63.6,30.06,South,179,3.0,4.0,94,0.00,,---,0.00,VWS V14.01,2013-12-06 06:31:00,
2013-12-06 01:36:00,65.3,63.5,30.07,SE,139,2.0,5.0,94,0.00,,---,0.00,VWS V14.01,2013-12-06 06:36:00,
2013-12-06 01:41:00,65.2,63.4,30.07,SW,222,2.0,8.0,94,0.00,,---,0.00,VWS V14.01,2013-12-06 06:41:00,
2013-12-06 01:46:00,65.1,63.3,30.06,SSW,202,2.0,3.0,94,0.00,,---,0.00,VWS V14.01,2013-12-06 06:46:00,
2013-12-06 01:51:00,65.1,63.3,30.07,SW,236,2.0,5.0,94,0.00,,---,0.00,VWS V14.01,2013-12-06 06:51:00,
2013-12-06 01:55:00,65.0,63.2,30.07,South,171,2.0,4.0,94,0.00,,---,0.00,VWS V14.01,2013-12-06 06:55:00,
2013-12-06 02:00:00,65.1,63.3,30.07,SSE,158,3.0,4.0,94,0.00,,---,0.00,VWS V14.01,2013-12-06 07:00:00,
2013-12-06 02:05:00,65.2,63.1,30.07,WSW,257,2.0,5.0,93,0.00,,---,0.00,VWS V14.01,2013-12-06 07:05:00,
2013-12-06 02:10:00,65.3,63.2,30.07,WSW,237,6.0,7.0,93,0.00,,---,0.00,VWS V14.01,2013-12-06 07:10:00,
2013-12-06 02:15:00,65.4,63.3,30.07,SSW,213,4.0,5.0,93,0.00,,---,0.00,VWS V14.01,2013-12-06 07:15:00,
2013-12-06 02:20:00,65.6,63.2,30.07,SW,232,2.0,6.0,92,0.00,,---,0.00,VWS V14.01,2013-12-06 07:20:00,
2013-12-06 02:25:00,65.7,63.3,30.07,SSW,209,2.0,8.0,92,0.00,,---,0.00,VWS V14.01,2013-12-06 07:25:00,
2013-12-06 02:30:00,65.9,63.2,30.08,SW,217,5.0,7.0,91,0.00,,---,0.00,VWS V14.01,2013-12-06 07:30:00,
2013-12-06 02:35:00,66.0,63.3,30.07,SW,225,2.0,4.0,91,0.00,,---,0.00,VWS V14.01,2013-12-06 07:35:00,
2013-12-06 02:40:00,66.1,63.1,30.07,SSW,192,6.0,9.0,90,0.00,,---,0.00,VWS V14.01,2013-12-06 07:40:00,
2013-12-06 02:45:00,66.1,63.1,30.07,South,182,3.0,6.0,90,0.00,,---,0.00,VWS V14.01,2013-12-06 07:45:00,
2013-12-06 02:50:00,66.1,63.1,30.07,SW,219,7.0,8.0,90,0.00,,---,0.00,VWS V14.01,2013-12-06 07:50:00,
2013-12-06 02:55:00,66.1,63.1,30.07,WSW,245,2.0,6.0,90,0.00,,---,0.00,VWS V14.01,2013-12-06 07:55:00,
2013-12-06 03:00:00,66.1,63.1,30.07,SW,214,5.0,5.0,90,0.00,,---,0.00,VWS V14.01,2013-12-06 08:00:00,
2013-12-06 03:05:00,66.1,63.1,30.07,SW,227,4.0,5.0,90,0.00,,---,0.00,VWS V14.01,2013-12-06 08:05:00,
2013-12-06 03:10:00,66.0,63.0,30.07,West,264,4.0,4.0,90,0.00,,---,0.00,VWS V14.01,2013-12-06 08:10:00,
2013-12-06 03:15:00,66.0,63.0,30.07,WSW,249,4.0,4.0,90,0.00,,---,0.00,VWS V14.01,2013-12-06 08:15:00,
2013-12-06 03:20:00,66.0,63.0,30.07,SSW,199,2.0,5.0,90,0.00,,---,0.00,VWS V14.01,2013-12-06 08:20:00,
2013-12-06 03:25:00,66.0,63.0,30.07,SW,233,4.0,7.0,90,0.00,,---,0.00,VWS V14.01,2013-12-06 08:25:00,
2013-12-06 03:30:00,65.8,62.8,30.07,SW,216,4.0,6.0,90,0.00,,---,0.00,VWS V14.01,2013-12-06 08:30:00,
2013-12-06 03:35:00,65.7,62.7,30.07,South,186,2.0,4.0,90,0.00,,---,0.00,VWS V14.01,2013-12-06 08:35:00,
2013-12-06 03:40:00,65.6,62.6,30.07,West,267,5.0,5.0,90,0.00,,---,0.00,VWS V14.01,2013-12-06 08:40:00,
2013-12-06 03:45:00,65.6,62.6,30.07,WSW,256,4.0,5.0,90,0.00,,---,0.00,VWS V14.01,2013-12-06 08:45:00,
2013-12-06 03:50:00,65.4,62.7,30.06,SW,236,2.0,4.0,91,0.00,,---,0.00,VWS V14.01,2013-12-06 08:50:00,
2013-12-06 03:55:00,65.4,62.7,30.07,South,178,3.0,6.0,91,0.00,,---,0.00,VWS V14.01,2013-12-06 08:55:00,
2013-12-06 04:00:00,65.3,62.6,30.07,SW,219,3.0,5.0,91,0.00,,---,0.00,VWS V14.01,2013-12-06 09:00:00,
2013-12-06 04:05:00,65.2,62.5,30.07,SSW,196,3.0,6.0,91,0.00,,---,0.00,VWS V14.01,2013-12-06 09:05:00,
2013-12-06 04:10:00,65.2,62.5,30.07,SSW,198,3.0,8.0,91,0.00,,---,0.00,VWS V14.01,2013-12-06 09:10:00,
2013-12-06 04:15:00,65.1,62.4,30.07,South,183,4.0,7.0,91,0.00,,---,0.00,VWS V14.01,2013-12-06 09:15:00,
2013-12-06 04:20:00,65.0,62.3,30.07,SSW,209,6.0,6.0,91,0.00,,---,0.00,VWS V14.01,2013-12-06 09:20:00,
2013-12-06 04:25:00,65.0,62.6,30.07,WSW,242,2.0,2.0,92,0.00,,---,0.00,VWS V14.01,2013-12-06 09:25:00,
2013-12-06 04:30:00,65.0,62.6,30.07,WSW,240,3.0,3.0,92,0.00,,---,0.00,VWS V14.01,2013-12-06 09:30:00,
2013-12-06 04:35:00,64.9,62.5,30.07,SW,219,3.0,5.0,92,0.00,,---,0.00,VWS V14.01,2013-12-06 09:35:00,
2013-12-06 04:40:00,64.9,62.5,30.07,SSW,198,4.0,6.0,92,0.00,,---,0.00,VWS V14.01,2013-12-06 09:40:00,
2013-12-06 04:45:00,64.9,62.5,30.07,South,171,4.0,4.0,92,0.00,,---,0.00,VWS V14.01,2013-12-06 09:45:00,
2013-12-06 04:50:00,65.0,62.6,30.07,WSW,240,4.0,6.0,92,0.00,,---,0.00,VWS V14.01,2013-12-06 09:50:00,
2013-12-06 04:55:00,65.0,62.6,30.07,SW,232,1.0,2.0,92,0.00,,---,0.00,VWS V14.01,2013-12-06 09:55:00,
2013-12-06 05:00:00,65.1,62.7,30.07,SW,225,6.0,6.0,92,0.00,,---,0.00,VWS V14.01,2013-12-06 10:00:00,
2013-12-06 05:05:00,65.1,62.7,30.07,West,276,2.0,3.0,92,0.00,,---,0.00,VWS V14.01,2013-12-06 10:05:00,
2013-12-06 05:10:00,65.1,62.7,30.07,SSW,199,1.0,2.0,92,0.00,,---,0.00,VWS V14.01,2013-12-06 10:10:00,
2013-12-06 05:15:00,65.1,62.7,30.07,SSW,206,4.0,4.0,92,0.00,,---,0.00,VWS V14.01,2013-12-06 10:15:00,
2013-12-06 05:20:00,65.0,62.6,30.07,SW,231,2.0,3.0,92,0.00,,---,0.00,VWS V14.01,2013-12-06 10:20:00,
2013-12-06 05:25:00,65.0,62.6,30.07,SSW,209,4.0,6.0,92,0.00,,---,0.00,VWS V14.01,2013-12-06 10:25:00,
2013-12-06 05:30:00,64.9,62.5,30.07,WSW,246,3.0,5.0,92,0.00,,---,0.00,VWS V14.01,2013-12-06 10:30:00,
2013-12-06 05:35:00,64.9,62.5,30.06,SW,215,6.0,6.0,92,0.00,,---,0.00,VWS V14.01,2013-12-06 10:35:00,
2013-12-06 05:40:00,64.9,62.5,30.07,SW,225,3.0,5.0,92,0.00,,---,0.00,VWS V14.01,2013-12-06 10:40:00,
2013-12-06 05:45:00,64.8,62.4,30.06,SSW,200,3.0,4.0,92,0.00,,---,0.00,VWS V14.01,2013-12-06 10:45:00,
2013-12-06 05:50:00,64.7,62.3,30.07,South,184,3.0,3.0,92,0.00,,---,0.00,VWS V14.01,2013-12-06 10:50:00,
2013-12-06 05:55:00,64.8,62.4,30.07,WSW,246,2.0,4.0,92,0.00,,---,0.00,VWS V14.01,2013-12-06 10:55:00,
2013-12-06 06:00:00,64.8,62.4,30.07,SSW,207,4.0,5.0,92,0.00,,---,0.00,VWS V14.01,2013-12-06 11:00:00,
2013-12-06 06:05:00,64.8,62.4,30.07,WSW,240,4.0,4.0,92,0.00,,---,0.00,VWS V14.01,2013-12-06 11:05:00,
2013-12-06 06:10:00,64.8,62.4,30.07,SSW,208,7.0,7.0,92,0.00,,---,0.00,VWS V14.01,2013-12-06 11:10:00,
2013-12-06 06:15:00,64.8,62.4,30.08,SW,216,3.0,5.0,92,0.00,,---,0.00,VWS V14.01,2013-12-06 11:15:00,
2013-12-06 06:20:00,64.9,62.5,30.08,SW,221,10.0,10.0,92,0.00,,---,0.00,VWS V14.01,2013-12-06 11:20:00,
2013-12-06 06:25:00,64.9,62.5,30.09,WSW,242,2.0,4.0,92,0.00,,---,0.00,VWS V14.01,2013-12-06 11:25:00,
2013-12-06 06:30:00,65.0,62.6,30.09,SW,232,3.0,6.0,92,0.00,,---,0.00,VWS V14.01,2013-12-06 11:30:00,
2013-12-06 06:35:00,65.0,62.6,30.09,WSW,242,2.0,3.0,92,0.00,,---,0.00,VWS V14.01,2013-12-06 11:35:00,
2013-12-06 06:40:00,65.0,62.6,30.09,SW,219,4.0,4.0,92,0.00,,---,0.00,VWS V14.01,2013-12-06 11:40:00,
2013-12-06 06:45:00,65.1,62.7,30.09,SSW,203,2.0,3.0,92,0.00,,---,0.00,VWS V14.01,2013-12-06 11:45:00,
2013-12-06 06:50:00,65.0,62.6,30.09,SSE,150,4.0,4.0,92,0.00,,---,0.00,VWS V14.01,2013-12-06 11:50:00,
2013-12-06 06:55:00,64.9,62.5,30.08,SSW,195,6.0,6.0,92,0.00,,---,0.00,VWS V14.01,2013-12-06 11:55:00,
2013-12-06 07:00:00,64.9,62.5,30.08,West,265,3.0,4.0,92,0.00,,---,0.00,VWS V14.01,2013-12-06 12:00:00,
2013-12-06 07:05:00,64.8,62.4,30.08,WSW,241,2.0,2.0,92,0.00,,---,0.00,VWS V14.01,2013-12-06 12:05:00,
2013-12-06 07:10:00,64.6,62.2,30.08,South,187,3.0,5.0,92,0.00,,---,0.00,VWS V14.01,2013-12-06 12:10:00,
2013-12-06 07:15:00,64.6,62.2,30.08,SSW,204,1.0,4.0,92,0.00,,---,0.00,VWS V14.01,2013-12-06 12:15:00,
2013-12-06 07:20:00,64.5,62.1,30.09,SSW,202,2.0,2.0,92,0.00,,---,0.00,VWS V14.01,2013-12-06 12:20:00,
2013-12-06 07:25:00,64.5,62.4,30.08,SW,230,3.0,4.0,93,0.00,,---,0.00,VWS V14.01,2013-12-06 12:25:00,
2013-12-06 07:30:00,64.5,62.1,30.09,SSW,205,4.0,6.0,92,0.00,,---,0.00,VWS V14.01,2013-12-06 12:30:00,
2013-12-06 07:35:00,64.6,62.5,30.09,SSW,203,3.0,4.0,93,0.00,,---,0.00,VWS V14.01,2013-12-06 12:35:00,
2013-12-06 07:40:00,64.7,62.3,30.09,West,281,2.0,4.0,92,0.00,,---,0.00,VWS V14.01,2013-12-06 12:40:00,
2013-12-06 07:45:00,64.7,62.3,30.09,SW,214,4.0,4.0,92,0.00,,---,0.00,VWS V14.01,2013-12-06 12:45:00,
2013-12-06 07:50:00,64.9,62.5,30.10,WSW,246,4.0,4.0,92,0.00,,---,0.00,VWS V14.01,2013-12-06 12:50:00,
2013-12-06 07:55:00,65.0,62.6,30.10,South,173,5.0,5.0,92,0.00,,---,0.00,VWS V14.01,2013-12-06 12:55:00,
2013-12-06 08:00:00,65.1,62.7,30.10,WSW,250,6.0,6.0,92,0.00,,---,0.00,VWS V14.01,2013-12-06 13:00:00,
2013-12-06 08:05:00,65.3,62.6,30.10,WSW,242,7.0,7.0,91,0.00,,---,0.00,VWS V14.01,2013-12-06 13:05:00,
2013-12-06 08:10:00,65.5,62.8,30.10,WSW,253,5.0,11.0,91,0.00,,---,0.00,VWS V14.01,2013-12-06 13:10:00,
2013-12-06 08:15:00,65.8,62.8,30.10,WSW,248,5.0,11.0,90,0.00,,---,0.00,VWS V14.01,2013-12-06 13:15:00,
2013-12-06 08:20:00,66.1,63.1,30.10,SW,217,7.0,7.0,90,0.00,,---,0.00,VWS V14.01,2013-12-06 13:20:00,
2013-12-06 08:25:00,66.4,63.1,30.11,SW,236,4.0,4.0,89,0.00,,---,0.00,VWS V14.01,2013-12-06 13:25:00,
2013-12-06 08:30:00,66.5,63.2,30.11,WSW,246,4.0,6.0,89,0.00,,---,0.00,VWS V14.01,2013-12-06 13:30:00,
2013-12-06 08:35:00,66.5,62.8,30.11,SSW,209,2.0,5.0,88,0.00,,---,0.00,VWS V14.01,2013-12-06 13:35:00,
2013-12-06 08:40:00,66.6,62.9,30.11,WSW,250,3.0,5.0,88,0.00,,---,0.00,VWS V14.01,2013-12-06 13:40:00,
2013-12-06 08:45:00,66.6,62.9,30.12,SW,227,7.0,7.0,88,0.00,,---,0.00,VWS V14.01,2013-12-06 13:45:00,
2013-12-06 08:50:00,66.8,63.1,30.12,West,265,3.0,5.0,88,0.00,,---,0.00,VWS V14.01,2013-12-06 13:50:00,
2013-12-06 08:55:00,67.1,63.1,30.12,West,263,4.0,9.0,87,0.00,,---,0.00,VWS V14.01,2013-12-06 13:55:00,
2013-12-06 08:59:00,67.3,63.3,30.12,WSW,240,4.0,5.0,87,0.00,,---,0.00,VWS V14.01,2013-12-06 13:59:00,
2013-12-06 09:04:00,67.6,63.3,30.12,SSW,211,9.0,9.0,86,0.00,,---,0.00,VWS V14.01,2013-12-06 14:04:00,
2013-12-06 09:09:00,67.8,63.1,30.12,West,264,4.0,7.0,85,0.00,,---,0.00,VWS V14.01,2013-12-06 14:09:00,
2013-12-06 09:14:00,68.1,63.4,30.13,WSW,249,10.0,10.0,85,0.00,,---,0.00,VWS V14.01,2013-12-06 14:14:00,
2013-12-06 09:19:00,68.2,63.2,30.13,West,261,2.0,9.0,84,0.00,,---,0.00,VWS V14.01,2013-12-06 14:19:00,
2013-12-06 09:24:00,68.6,63.6,30.12,WSW,240,5.0,6.0,84,0.00,,---,0.00,VWS V14.01,2013-12-06 14:24:00,
2013-12-06 09:29:00,68.8,63.8,30.13,WNW,283,3.0,8.0,84,0.00,,---,0.00,VWS V14.01,2013-12-06 14:29:00,
2013-12-06 09:34:00,69.1,63.7,30.13,SSW,213,10.0,10.0,83,0.00,,---,0.00,VWS V14.01,2013-12-06 14:34:00,
2013-12-06 09:39:00,69.3,63.6,30.12,WSW,238,5.0,8.0,82,0.00,,---,0.00,VWS V14.01,2013-12-06 14:39:00,
2013-12-06 09:44:00,69.6,63.5,30.13,WSW,238,5.0,8.0,81,0.00,,---,0.00,VWS V14.01,2013-12-06 14:44:00,
2013-12-06 09:49:00,69.9,63.8,30.13,WSW,237,11.0,12.0,81,0.00,,---,0.00,VWS V14.01,2013-12-06 14:49:00,
2013-12-06 09:54:00,70.4,63.9,30.12,South,174,6.0,7.0,80,0.00,,---,0.00,VWS V14.01,2013-12-06 14:54:00,
2013-12-06 09:59:00,70.7,63.9,30.13,West,260,5.0,6.0,79,0.00,,---,0.00,VWS V14.01,2013-12-06 14:59:00,
2013-12-06 10:04:00,70.8,64.0,30.13,SW,233,14.0,14.0,79,0.00,,---,0.00,VWS V14.01,2013-12-06 15:04:00,
2013-12-06 10:09:00,71.1,64.3,30.13,WSW,257,9.0,11.0,79,0.00,,---,0.00,VWS V14.01,2013-12-06 15:09:00,
2013-12-06 10:14:00,71.6,64.4,30.13,WNW,283,4.0,7.0,78,0.00,,---,0.00,VWS V14.01,2013-12-06 15:14:00,
2013-12-06 10:19:00,72.0,64.4,30.12,WSW,238,4.0,11.0,77,0.00,,---,0.00,VWS V14.01,2013-12-06 15:19:00,
2013-12-06 10:24:00,72.0,64.4,30.12,SSW,213,7.0,7.0,77,0.00,,---,0.00,VWS V14.01,2013-12-06 15:24:00,
2013-12-06 10:29:00,72.2,64.6,30.13,WSW,241,5.0,7.0,77,0.00,,---,0.00,VWS V14.01,2013-12-06 15:29:00,
2013-12-06 10:34:00,72.4,64.8,30.12,West,273,11.0,11.0,77,0.00,,---,0.00,VWS V14.01,2013-12-06 15:34:00,
2013-12-06 10:39:00,72.4,64.8,30.12,WSW,256,5.0,5.0,77,0.00,,---,0.00,VWS V14.01,2013-12-06 15:39:00,
2013-12-06 10:44:00,72.5,64.5,30.12,SW,219,8.0,8.0,76,0.00,,---,0.00,VWS V14.01,2013-12-06 15:44:00,
2013-12-06 10:49:00,72.6,64.6,30.13,SW,233,10.0,10.0,76,0.00,,---,0.00,VWS V14.01,2013-12-06 15:49:00,
2013-12-06 10:54:00,72.7,64.3,30.12,SSW,202,5.0,14.0,75,0.00,,---,0.00,VWS V14.01,2013-12-06 15:54:00,
2013-12-06 10:59:00,73.0,64.6,30.12,SW,233,5.0,5.0,75,0.00,,---,0.00,VWS V14.01,2013-12-06 15:59:00,
2013-12-06 11:04:00,73.1,64.7,30.12,West,260,5.0,6.0,75,0.00,,---,0.00,VWS V14.01,2013-12-06 16:04:00,
2013-12-06 11:09:00,73.8,65.0,30.12,SSE,165,9.0,9.0,74,0.00,,---,0.00,VWS V14.01,2013-12-06 16:09:00,
2013-12-06 11:14:00,73.8,64.6,30.11,SW,218,3.0,11.0,73,0.00,,---,0.00,VWS V14.01,2013-12-06 16:14:00,
2013-12-06 11:19:00,74.1,65.3,30.11,SSW,211,2.0,8.0,74,0.00,,---,0.00,VWS V14.01,2013-12-06 16:19:00,
2013-12-06 11:24:00,74.5,64.9,30.11,West,276,5.0,8.0,72,0.00,,---,0.00,VWS V14.01,2013-12-06 16:24:00,
2013-12-06 11:29:00,74.7,65.1,30.11,West,271,5.0,5.0,72,0.00,,---,0.00,VWS V14.01,2013-12-06 16:29:00,
2013-12-06 11:35:00,74.8,64.8,30.11,West,259,8.0,8.0,71,0.00,,---,0.00,VWS V14.01,2013-12-06 16:35:00,
2013-12-06 11:40:00,74.8,64.8,30.11,WSW,252,12.0,18.0,71,0.00,,---,0.00,VWS V14.01,2013-12-06 16:40:00,
2013-12-06 11:45:00,75.0,65.0,30.10,West,265,7.0,8.0,71,0.00,,---,0.00,VWS V14.01,2013-12-06 16:45:00,
2013-12-06 11:50:00,75.2,65.2,30.10,WSW,243,17.0,17.0,71,0.00,,---,0.00,VWS V14.01,2013-12-06 16:50:00,
2013-12-06 11:55:00,75.3,64.8,30.10,WSW,238,10.0,10.0,70,0.00,,---,0.00,VWS V14.01,2013-12-06 16:55:00,
2013-12-06 12:00:00,75.5,65.0,30.09,WSW,240,11.0,11.0,70,0.00,,---,0.00,VWS V14.01,2013-12-06 17:00:00,
2013-12-06 12:05:00,75.5,65.0,30.09,WSW,240,11.0,11.0,70,0.00,,---,0.00,VWS V14.01,2013-12-06 17:05:00,
2013-12-06 12:10:00,76.1,65.6,30.09,SW,234,9.0,9.0,70,0.00,,---,0.00,VWS V14.01,2013-12-06 17:10:00,
2013-12-06 12:15:00,76.2,64.9,30.09,WSW,242,12.0,12.0,68,0.00,,---,0.00,VWS V14.01,2013-12-06 17:15:00,
2013-12-06 12:20:00,76.1,64.8,30.08,SW,226,9.0,13.0,68,0.00,,---,0.00,VWS V14.01,2013-12-06 17:20:00,
2013-12-06 12:25:00,76.0,65.1,30.08,SW,225,19.0,19.0,69,0.00,,---,0.00,VWS V14.01,2013-12-06 17:25:00,
2013-12-06 12:30:00,76.0,65.1,30.08,WSW,253,9.0,9.0,69,0.00,,---,0.00,VWS V14.01,2013-12-06 17:30:00,
2013-12-06 12:35:00,76.2,64.9,30.08,South,180,14.0,14.0,68,0.00,,---,0.00,VWS V14.01,2013-12-06 17:35:00,
2013-12-06 12:40:00,76.1,64.8,30.08,WSW,249,8.0,8.0,68,0.00,,---,0.00,VWS V14.01,2013-12-06 17:40:00,
2013-12-06 12:45:00,76.3,65.0,30.07,SSE,165,6.0,8.0,68,0.00,,---,0.00,VWS V14.01,2013-12-06 17:45:00,
2013-12-06 12:50:00,76.4,65.5,30.07,SW,223,8.0,9.0,69,0.00,,---,0.00,VWS V14.01,2013-12-06 17:50:00,
2013-12-06 12:55:00,76.4,65.1,30.07,SW,225,9.0,9.0,68,0.00,,---,0.00,VWS V14.01,2013-12-06 17:55:00,
2013-12-06 13:01:00,76.2,65.3,30.07,WSW,241,8.0,8.0,69,0.00,,---,0.00,VWS V14.01,2013-12-06 18:01:00,
2013-12-06 13:06:00,76.2,65.3,30.07,SW,218,8.0,8.0,69,0.00,,---,0.00,VWS V14.01,2013-12-06 18:06:00,
2013-12-06 13:11:00,76.5,65.6,30.06,SE,141,1.0,9.0,69,0.00,,---,0.00,VWS V14.01,2013-12-06 18:11:00,
2013-12-06 13:16:00,77.0,65.6,30.06,WSW,240,5.0,5.0,68,0.00,,---,0.00,VWS V14.01,2013-12-06 18:16:00,
2013-12-06 13:21:00,76.8,65.4,30.06,SW,226,9.0,9.0,68,0.00,,---,0.00,VWS V14.01,2013-12-06 18:21:00,
2013-12-06 13:26:00,77.0,65.6,30.05,WNW,284,5.0,5.0,68,0.00,,---,0.00,VWS V14.01,2013-12-06 18:26:00,
2013-12-06 13:31:00,76.9,65.5,30.05,South,190,3.0,5.0,68,0.00,,---,0.00,VWS V14.01,2013-12-06 18:31:00,
2013-12-06 13:36:00,77.2,65.4,30.05,ESE,122,4.0,7.0,67,0.00,,---,0.00,VWS V14.01,2013-12-06 18:36:00,
2013-12-06 13:41:00,76.9,65.1,30.04,SW,223,5.0,14.0,67,0.00,,---,0.00,VWS V14.01,2013-12-06 18:41:00,
2013-12-06 13:46:00,76.9,65.5,30.04,SSW,198,8.0,8.0,68,0.00,,---,0.00,VWS V14.01,2013-12-06 18:46:00,
2013-12-06 13:51:00,77.1,65.7,30.04,West,271,4.0,4.0,68,0.00,,---,0.00,VWS V14.01,2013-12-06 18:51:00,
2013-12-06 13:56:00,77.3,65.5,30.04,WSW,240,12.0,12.0,67,0.00,,---,0.00,VWS V14.01,2013-12-06 18:56:00,
2013-12-06 14:01:00,77.3,65.1,30.03,SW,221,6.0,7.0,66,0.00,,---,0.00,VWS V14.01,2013-12-06 19:01:00,
2013-12-06 14:06:00,77.3,65.1,30.03,SW,221,6.0,7.0,66,0.00,,---,0.00,VWS V14.01,2013-12-06 19:06:00,
2013-12-06 14:11:00,77.4,65.2,30.03,SSW,198,9.0,9.0,66,0.00,,---,0.00,VWS V14.01,2013-12-06 19:11:00,
2013-12-06 14:16:00,77.2,65.0,30.03,SW,222,8.0,11.0,66,0.00,,---,0.00,VWS V14.01,2013-12-06 19:16:00,
2013-12-06 14:21:00,77.0,64.8,30.03,SW,230,10.0,10.0,66,0.00,,---,0.00,VWS V14.01,2013-12-06 19:21:00,
2013-12-06 14:26:00,76.9,64.7,30.02,SW,217,6.0,7.0,66,0.00,,---,0.00,VWS V14.01,2013-12-06 19:26:00,
2013-12-06 14:31:00,77.1,64.9,30.02,WSW,241,2.0,8.0,66,0.00,,---,0.00,VWS V14.01,2013-12-06 19:31:00,
2013-12-06 14:36:00,77.2,65.0,30.02,South,180,4.0,6.0,66,0.00,,---,0.00,VWS V14.01,2013-12-06 19:36:00,
2013-12-06 14:41:00,77.4,65.2,30.02,SW,221,4.0,5.0,66,0.00,,---,0.00,VWS V14.01,2013-12-06 19:41:00,
2013-12-06 14:46:00,77.5,65.3,30.02,SW,230,14.0,14.0,66,0.00,,---,0.00,VWS V14.01,2013-12-06 19:46:00,
2013-12-06 14:51:00,77.4,64.7,30.02,WSW,245,7.0,10.0,65,0.00,,---,0.00,VWS V14.01,2013-12-06 19:51:00,
2013-12-06 14:56:00,77.4,64.7,30.02,SSW,198,6.0,13.0,65,0.00,,---,0.00,VWS V14.01,2013-12-06 19:56:00,
2013-12-06 15:01:00,77.4,64.7,30.02,West,263,9.0,9.0,65,0.00,,---,0.00,VWS V14.01,2013-12-06 20:01:00,
2013-12-06 15:06:00,77.1,64.4,30.02,West,271,6.0,8.0,65,0.00,,---,0.00,VWS V14.01,2013-12-06 20:06:00,
2013-12-06 15:11:00,77.2,64.5,30.02,SW,217,8.0,8.0,65,0.00,,---,0.00,VWS V14.01,2013-12-06 20:11:00,
2013-12-06 15:16:00,76.9,64.2,30.02,SW,233,9.0,11.0,65,0.00,,---,0.00,VWS V14.01,2013-12-06 20:16:00,
2013-12-06 15:21:00,77.0,64.8,30.02,WSW,242,5.0,9.0,66,0.00,,---,0.00,VWS V14.01,2013-12-06 20:21:00,
2013-12-06 15:26:00,76.9,64.7,30.02,SW,226,13.0,13.0,66,0.00,,---,0.00,VWS V14.01,2013-12-06 20:26:00,
2013-12-06 15:31:00,76.9,64.7,30.02,SSW,202,5.0,5.0,66,0.00,,---,0.00,VWS V14.01,2013-12-06 20:31:00,
2013-12-06 15:36:00,76.9,64.7,30.02,SSW,192,2.0,9.0,66,0.00,,---,0.00,VWS V14.01,2013-12-06 20:36:00,
2013-12-06 15:41:00,76.8,65.0,30.02,West,267,2.0,5.0,67,0.00,,---,0.00,VWS V14.01,2013-12-06 20:41:00,
2013-12-06 15:46:00,76.7,64.9,30.02,SW,219,6.0,6.0,67,0.00,,---,0.00,VWS V14.01,2013-12-06 20:46:00,
2013-12-06 15:51:00,76.6,65.3,30.02,SE,136,6.0,9.0,68,0.00,,---,0.00,VWS V14.01,2013-12-06 20:51:00,
2013-12-06 15:56:00,76.4,65.1,30.02,SSW,210,6.0,6.0,68,0.00,,---,0.00,VWS V14.01,2013-12-06 20:56:00,
2013-12-06 16:01:00,76.2,65.3,30.02,SW,225,3.0,7.0,69,0.00,,---,0.00,VWS V14.01,2013-12-06 21:01:00,
2013-12-06 16:06:00,76.2,65.3,30.02,SW,225,3.0,7.0,69,0.00,,---,0.00,VWS V14.01,2013-12-06 21:06:00,
2013-12-06 16:11:00,76.0,65.1,30.02,SW,227,3.0,7.0,69,0.00,,---,0.00,VWS V14.01,2013-12-06 21:11:00,
2013-12-06 16:16:00,76.0,65.1,30.02,SW,227,3.0,7.0,69,0.00,,---,0.00,VWS V14.01,2013-12-06 21:16:00,
2013-12-06 16:21:00,76.0,65.1,30.02,SW,227,3.0,7.0,69,0.00,,---,0.00,VWS V14.01,2013-12-06 21:21:00,
2013-12-06 16:26:00,76.0,65.1,30.02,SW,227,3.0,7.0,69,0.00,,---,0.00,VWS V14.01,2013-12-06 21:26:00,
2013-12-06 16:31:00,76.0,65.1,30.02,SW,227,3.0,7.0,69,0.00,,---,0.00,VWS V14.01,2013-12-06 21:31:00,
2013-12-06 16:36:00,76.0,65.1,30.02,SW,227,3.0,7.0,69,0.00,,---,0.00,VWS V14.01,2013-12-06 21:36:00,
2013-12-06 16:42:00,76.0,65.1,30.02,SW,227,3.0,7.0,69,0.00,,---,0.00,VWS V14.01,2013-12-06 21:42:00,
2013-12-06 16:47:00,76.0,65.1,30.02,SW,227,3.0,7.0,69,0.00,,---,0.00,VWS V14.01,2013-12-06 21:47:00,
2013-12-06 16:52:00,76.0,65.1,30.02,SW,227,3.0,7.0,69,0.00,,---,0.00,VWS V14.01,2013-12-06 21:52:00,
2013-12-06 16:57:00,76.0,65.1,30.02,SW,227,3.0,7.0,69,0.00,,---,0.00,VWS V14.01,2013-12-06 21:57:00,
2013-12-06 17:02:00,76.0,65.1,30.02,SW,227,3.0,7.0,69,0.00,,---,0.00,VWS V14.01,2013-12-06 22:02:00,
2013-12-06 17:07:00,76.0,65.1,30.02,SW,227,3.0,7.0,69,0.00,,---,0.00,VWS V14.01,2013-12-06 22:07:00,
2013-12-06 17:12:00,76.0,65.1,30.02,SW,227,3.0,7.0,69,0.00,,---,0.00,VWS V14.01,2013-12-06 22:12:00,
2013-12-06 17:17:00,74.0,64.0,30.02,WSW,257,3.0,5.0,71,0.00,,---,0.00,VWS V14.01,2013-12-06 22:17:00,
2013-12-06 17:22:00,73.7,64.1,30.03,SW,225,5.0,5.0,72,0.00,,---,0.00,VWS V14.01,2013-12-06 22:22:00,
2013-12-06 17:27:00,73.6,64.0,30.03,South,184,4.0,6.0,72,0.00,,---,0.00,VWS V14.01,2013-12-06 22:27:00,
2013-12-06 17:32:00,73.4,63.8,30.03,South,178,3.0,3.0,72,0.00,,---,0.00,VWS V14.01,2013-12-06 22:32:00,
2013-12-06 17:37:00,73.3,63.7,30.03,SW,218,3.0,3.0,72,0.00,,---,0.00,VWS V14.01,2013-12-06 22:37:00,
2013-12-06 17:42:00,73.1,63.9,30.03,SW,233,4.0,4.0,73,0.00,,---,0.00,VWS V14.01,2013-12-06 22:42:00,
2013-12-06 17:47:00,73.1,63.9,30.03,SW,217,7.0,7.0,73,0.00,,---,0.00,VWS V14.01,2013-12-06 22:47:00,
2013-12-06 17:52:00,73.1,63.9,30.03,SSW,194,4.0,6.0,73,0.00,,---,0.00,VWS V14.01,2013-12-06 22:52:00,
2013-12-06 17:57:00,73.1,63.9,30.03,SSE,159,3.0,9.0,73,0.00,,---,0.00,VWS V14.01,2013-12-06 22:57:00,
2013-12-06 18:02:00,73.0,63.8,30.04,SSW,206,2.0,4.0,73,0.00,,---,0.00,VWS V14.01,2013-12-06 23:02:00,
2013-12-06 18:07:00,72.9,63.8,30.03,SSW,195,3.0,7.0,73,0.00,,---,0.00,VWS V14.01,2013-12-06 23:07:00,
2013-12-06 18:12:00,72.9,63.8,30.04,West,272,5.0,11.0,73,0.00,,---,0.00,VWS V14.01,2013-12-06 23:12:00,
2013-12-06 18:17:00,72.8,63.7,30.04,SW,227,3.0,5.0,73,0.00,,---,0.00,VWS V14.01,2013-12-06 23:17:00,
2013-12-06 18:22:00,72.7,63.5,30.04,WSW,252,2.0,2.0,73,0.00,,---,0.00,VWS V14.01,2013-12-06 23:22:00,
2013-12-06 18:27:00,72.6,63.5,30.04,WSW,240,5.0,5.0,73,0.00,,---,0.00,VWS V14.01,2013-12-06 23:27:00,
2013-12-06 18:32:00,72.6,63.8,30.04,WNW,287,5.0,7.0,74,0.00,,---,0.00,VWS V14.01,2013-12-06 23:32:00,
2013-12-06 18:37:00,72.6,63.8,30.04,SSW,198,3.0,8.0,74,0.00,,---,0.00,VWS V14.01,2013-12-06 23:37:00,
2013-12-06 18:42:00,72.4,63.7,30.04,SW,236,8.0,8.0,74,0.00,,---,0.00,VWS V14.01,2013-12-06 23:42:00,
2013-12-06 18:47:00,72.2,63.5,30.04,WSW,253,3.0,3.0,74,0.00,,---,0.00,VWS V14.01,2013-12-06 23:47:00,
2013-12-06 18:52:00,72.0,63.7,30.04,South,171,5.0,5.0,75,0.00,,---,0.00,VWS V14.01,2013-12-06 23:52:00,
2013-12-06 18:57:00,72.0,63.7,30.04,SSW,203,5.0,6.0,75,0.00,,---,0.00,VWS V14.01,2013-12-06 23:57:00,
2013-12-06 19:02:00,71.9,63.9,30.03,South,173,4.0,4.0,76,0.00,,---,0.00,VWS V14.01,2013-12-07 00:02:00,
2013-12-06 19:07:00,71.8,63.8,30.03,SSW,202,2.0,6.0,76,0.00,,---,0.00,VWS V14.01,2013-12-07 00:07:00,
2013-12-06 19:12:00,71.6,64.0,30.03,WSW,254,1.0,3.0,77,0.00,,---,0.00,VWS V14.01,2013-12-07 00:12:00,
2013-12-06 19:17:00,71.5,63.9,30.03,South,190,4.0,7.0,77,0.00,,---,0.00,VWS V14.01,2013-12-07 00:17:00,
2013-12-06 19:22:00,71.5,64.3,30.03,SSW,192,7.0,7.0,78,0.00,,---,0.00,VWS V14.01,2013-12-07 00:22:00,
2013-12-06 19:27:00,71.4,64.2,30.04,WSW,249,2.0,3.0,78,0.00,,---,0.00,VWS V14.01,2013-12-07 00:27:00,
2013-12-06 19:32:00,71.4,64.2,30.04,SSW,211,7.0,7.0,78,0.00,,---,0.00,VWS V14.01,2013-12-07 00:32:00,
2013-12-06 19:37:00,71.3,64.5,30.04,South,190,5.0,5.0,79,0.00,,---,0.00,VWS V14.01,2013-12-07 00:37:00,
2013-12-06 19:42:00,71.3,64.5,30.04,SSW,203,5.0,6.0,79,0.00,,---,0.00,VWS V14.01,2013-12-07 00:42:00,
2013-12-06 19:47:00,71.2,64.4,30.04,WSW,252,4.0,4.0,79,0.00,,---,0.00,VWS V14.01,2013-12-07 00:47:00,
2013-12-06 19:52:00,71.0,64.5,30.04,South,180,2.0,4.0,80,0.00,,---,0.00,VWS V14.01,2013-12-07 00:52:00,
2013-12-06 19:57:00,71.0,64.5,30.04,SW,225,2.0,6.0,80,0.00,,---,0.00,VWS V14.01,2013-12-07 00:57:00,
2013-12-06 20:02:00,70.9,64.4,30.04,WSW,246,3.0,6.0,80,0.00,,---,0.00,VWS V14.01,2013-12-07 01:02:00,
2013-12-06 20:07:00,70.7,64.6,30.04,WSW,238,0.0,3.0,81,0.00,,---,0.00,VWS V14.01,2013-12-07 01:07:00,
2013-12-06 20:13:00,70.6,64.5,30.04,SW,219,3.0,3.0,81,0.00,,---,0.00,VWS V14.01,2013-12-07 01:13:00,
2013-12-06 20:18:00,70.5,64.4,30.04,SW,218,4.0,4.0,81,0.00,,---,0.00,VWS V14.01,2013-12-07 01:18:00,
2013-12-06 20:23:00,70.4,64.3,30.04,SSE,164,7.0,7.0,81,0.00,,---,0.00,VWS V14.01,2013-12-07 01:23:00,
2013-12-06 20:28:00,70.3,64.2,30.04,SSW,211,4.0,8.0,81,0.00,,---,0.00,VWS V14.01,2013-12-07 01:28:00,
2013-12-06 20:33:00,70.3,64.2,30.03,SSW,209,3.0,5.0,81,0.00,,---,0.00,VWS V14.01,2013-12-07 01:33:00,
2013-12-06 20:38:00,70.3,64.6,30.04,WSW,242,2.0,4.0,82,0.00,,---,0.00,VWS V14.01,2013-12-07 01:38:00,
2013-12-06 20:43:00,70.2,64.4,30.04,SSW,198,4.0,4.0,82,0.00,,---,0.00,VWS V14.01,2013-12-07 01:43:00,
2013-12-06 20:48:00,70.2,64.4,30.04,South,184,3.0,7.0,82,0.00,,---,0.00,VWS V14.01,2013-12-07 01:48:00,
2013-12-06 20:53:00,70.2,64.4,30.04,SW,223,2.0,5.0,82,0.00,,---,0.00,VWS V14.01,2013-12-07 01:53:00,
2013-12-06 20:58:00,70.1,64.4,30.03,SW,229,6.0,6.0,82,0.00,,---,0.00,VWS V14.01,2013-12-07 01:58:00,
2013-12-06 21:03:00,70.1,64.4,30.03,South,182,6.0,6.0,82,0.00,,---,0.00,VWS V14.01,2013-12-07 02:03:00,
2013-12-06 21:08:00,70.0,64.3,30.03,South,191,6.0,6.0,82,0.00,,---,0.00,VWS V14.01,2013-12-07 02:08:00,
2013-12-06 21:13:00,69.9,64.5,30.03,SSW,198,4.0,4.0,83,0.00,,---,0.00,VWS V14.01,2013-12-07 02:13:00,
2013-12-06 21:18:00,69.9,64.5,30.03,SW,227,6.0,7.0,83,0.00,,---,0.00,VWS V14.01,2013-12-07 02:18:00,
2013-12-06 21:23:00,69.9,64.5,30.03,South,170,5.0,6.0,83,0.00,,---,0.00,VWS V14.01,2013-12-07 02:23:00,
2013-12-06 21:28:00,69.8,64.4,30.03,West,261,3.0,4.0,83,0.00,,---,0.00,VWS V14.01,2013-12-07 02:28:00,
2013-12-06 21:33:00,69.7,64.7,30.04,SW,219,4.0,6.0,84,0.00,,---,0.00,VWS V14.01,2013-12-07 02:33:00,
2013-12-06 21:38:00,69.7,64.7,30.03,SSE,164,2.0,5.0,84,0.00,,---,0.00,VWS V14.01,2013-12-07 02:38:00,
2013-12-06 21:43:00,69.7,64.7,30.03,SSW,203,3.0,7.0,84,0.00,,---,0.00,VWS V14.01,2013-12-07 02:43:00,
2013-12-06 21:48:00,69.6,64.6,30.03,SSW,213,7.0,7.0,84,0.00,,---,0.00,VWS V14.01,2013-12-07 02:48:00,
2013-12-06 21:53:00,69.6,64.6,30.03,SE,128,3.0,5.0,84,0.00,,---,0.00,VWS V14.01,2013-12-07 02:53:00,
2013-12-06 21:58:00,69.5,64.5,30.03,SSW,203,7.0,7.0,84,0.00,,---,0.00,VWS V14.01,2013-12-07 02:58:00,
2013-12-06 22:03:00,69.4,64.7,30.03,SSW,194,3.0,7.0,85,0.00,,---,0.00,VWS V14.01,2013-12-07 03:03:00,
2013-12-06 22:08:00,69.3,64.6,30.03,WSW,242,6.0,6.0,85,0.00,,---,0.00,VWS V14.01,2013-12-07 03:08:00,
2013-12-06 22:13:00,69.2,64.5,30.03,South,190,2.0,3.0,85,0.00,,---,0.00,VWS V14.01,2013-12-07 03:13:00,
2013-12-06 22:18:00,69.1,64.7,30.04,WSW,256,3.0,5.0,86,0.00,,---,0.00,VWS V14.01,2013-12-07 03:18:00,
2013-12-06 22:23:00,69.0,64.6,30.04,WSW,242,4.0,4.0,86,0.00,,---,0.00,VWS V14.01,2013-12-07 03:23:00,
2013-12-06 22:28:00,68.9,64.6,30.04,SSE,159,5.0,6.0,86,0.00,,---,0.00,VWS V14.01,2013-12-07 03:28:00,
2013-12-06 22:33:00,68.8,64.4,30.04,SSW,205,2.0,3.0,86,0.00,,---,0.00,VWS V14.01,2013-12-07 03:33:00,
2013-12-06 22:38:00,68.8,64.8,30.04,West,273,2.0,5.0,87,0.00,,---,0.00,VWS V14.01,2013-12-07 03:38:00,
2013-12-06 22:43:00,68.7,64.7,30.05,SW,223,8.0,8.0,87,0.00,,---,0.00,VWS V14.01,2013-12-07 03:43:00,
2013-12-06 22:48:00,68.8,64.8,30.05,SSW,213,0.0,2.0,87,0.00,,---,0.00,VWS V14.01,2013-12-07 03:48:00,
2013-12-06 22:53:00,68.8,64.8,30.05,WSW,246,2.0,6.0,87,0.00,,---,0.00,VWS V14.01,2013-12-07 03:53:00,
2013-12-06 22:58:00,68.7,64.7,30.05,SSE,163,5.0,5.0,87,0.00,,---,0.00,VWS V14.01,2013-12-07 03:58:00,
2013-12-06 23:03:00,68.7,64.7,30.05,WSW,244,2.0,6.0,87,0.00,,---,0.00,VWS V14.01,2013-12-07 04:03:00,
2013-12-06 23:08:00,68.6,64.6,30.05,SW,223,2.0,4.0,87,0.00,,---,0.00,VWS V14.01,2013-12-07 04:08:00,
2013-12-06 23:13:00,68.6,64.6,30.06,WSW,246,1.0,4.0,87,0.00,,---,0.00,VWS V14.01,2013-12-07 04:13:00,
2013-12-06 23:18:00,68.5,64.8,30.06,SW,233,6.0,6.0,88,0.00,,---,0.00,VWS V14.01,2013-12-07 04:18:00,
2013-12-06 23:23:00,68.5,64.8,30.06,SSW,199,6.0,6.0,88,0.00,,---,0.00,VWS V14.01,2013-12-07 04:23:00,
2013-12-06 23:28:00,68.4,64.7,30.06,SW,221,4.0,4.0,88,0.00,,---,0.00,VWS V14.01,2013-12-07 04:28:00,
2013-12-06 23:33:00,68.4,64.7,30.06,WSW,238,4.0,5.0,88,0.00,,---,0.00,VWS V14.01,2013-12-07 04:33:00,
2013-12-06 23:38:00,68.3,64.6,30.06,West,269,5.0,5.0,88,0.00,,---,0.00,VWS V14.01,2013-12-07 04:38:00,
2013-12-06 23:43:00,68.3,64.6,30.06,SW,226,2.0,3.0,88,0.00,,---,0.00,VWS V14.01,2013-12-07 04:43:00,
2013-12-06 23:48:00,68.3,64.9,30.06,SW,217,2.0,5.0,89,0.00,,---,0.00,VWS V14.01,2013-12-07 04:48:00,
2013-12-06 23:53:00,68.2,64.8,30.06,SSW,211,3.0,3.0,89,0.00,,---,0.00,VWS V14.01,2013-12-07 04:53:00,
2013-12-06 23:58:00,68.2,64.8,30.06,SW,229,3.0,3.0,89,0.00,,---,0.00,VWS V14.01,2013-12-07 04:58:00,